Regional Weather Roundup
Issued by NWS

Home | Current Version | Previous Version | Graphics & Text | Print | Product List | Glossary On
Versions: 1 2 3 4 5 6 7 8 9 10 11 12 13 14 15 16 17 18 19 20 21 22 23 24 25 26 27 28 29 30 31 32 33 34 35 36 37 38 39 40 41 42 43 44 45 46 47 48 49 50
000
ASUS43 KLOT 300103
RWRIL

ILLINOIS REGIONAL WEATHER ROUNDUP
NATIONAL WEATHER SERVICE CHICAGO/ROMEOVILLE IL
800 PM CDT MON AUG 29 2016

NOTE: "FAIR" INDICATES FEW OR NO CLOUDS BELOW 12,000 FEET WITH NO
SIGNIFICANT WEATHER AND/OR OBSTRUCTIONS TO VISIBILITY.

* THESE STATIONS ARE NOT UNDER NWS QUALITY CONTROL. THEY ALSO MAY NOT
  REPORT WEATHER SUCH AS PRECIPITATION OR FOG.

ILZ001-002-007-009-015-016-024-300200-
NORTHWEST ILLINOIS

CITY           SKY/WX    TMP DP  RH WIND       PRES   REMARKS
MOLINE         CLOUDY    77  72  84 SE5       30.15R
STERLING*      MOCLDY    72  71  97 E6        30.16F
SAVANNA*       CLOUDY    72  69  91 CALM      30.17R
$$

ILZ003-004-008-010-011-017-018-300200-
NORTH CENTRAL ILLINOIS

CITY           SKY/WX    TMP DP  RH WIND       PRES   REMARKS
ROCKFORD       CLOUDY    72  69  90 N5        30.18F
FREEPORT*      CLOUDY    69  68  97 CALM      30.19F
ROCHELLE*      CLOUDY    71  70  98 SE5       30.17F FOG
$$

ILZ005-006-012>014-019>023-300200-
NORTHEAST ILLINOIS

CITY           SKY/WX    TMP DP  RH WIND       PRES   REMARKS
CHICAGO-OHARE  CLOUDY    75  72  90 NE5       30.17F
CHICAGO-MIDWAY CLOUDY    79  71  76 N5        30.17F HX  82
AURORA         CLOUDY    74  71  91 SE5       30.16F
LANSING*       CLOUDY    76  74  93 NE5       30.18S
JOLIET*        CLOUDY    76  73  92 CALM      30.16F
WAUKEGAN       CLOUDY    73  71  93 CALM      30.17F
DUPAGE AIRPORT LGT RAIN  73  71  93 N3        30.17F
KANKAKEE*      MOCLDY    79  75  87 CALM      30.17R FOG     HX  83
WHEELING       CLOUDY    74  72  93 CALM      30.19F
MORRIS*        CLOUDY    73  70  91 CALM      30.16S
ROMEOVILLE*    CLOUDY    74  73  99 E3        30.17F
$$

LMZ740>746-300200-
SOUTHERN LAKE MICHIGAN

STATION/POSITION SKY/WX   TEMP    WIND        PRES    VSBY  WAVE
                          AIR SEA DIR/SP/G                  HT/PER
                          (F)     (DEG/KT/KT) (MB)    (MI)  (FT/S)
SOUTHERN BUOY              77 78   70/  4/  4 1021.7          0
WILMETTE HARBOR            74 76   20/  2/  4   N/A           1
HARRISON CRIB              75     340/  7/  8   N/A
BURNHAM HARBOR             75     360/  4/  6   N/A
CALUMET HARBOR             75                 1021.7
BURNS HARBOR               73      80/  8/  9 1022.0F
MICHIGAN CITY              75      40/ 10/ 10   N/A
MICHIGAN CITY 6N           76 76   60/  6/  8   N/A           1/ 3
ST. JOSEPH                 76 76   20/  8/ 10 1021.6S         1
$$

ILZ025>027-034>036-040-047-049-050-058-095>099-300200-
WEST-CENTRAL ILLINOIS

CITY           SKY/WX    TMP DP  RH WIND       PRES   REMARKS
QUINCY         CLEAR     81  73  76 E3        30.13R HX  86
GALESBURG*     CLOUDY    73  72  94 NE5       30.15S
MACOMB*        PTCLDY    76  72  88 NE5       30.17R
JACKSONVILLE*  CLOUDY    81  76  84 E5        30.12R HX  86
PITTSFIELD*    CLEAR     80  74  83 CALM      30.14R HX  84
$$

ILZ028>032-037-038-041>044-048-051>054-059>061-300200-
CENTRAL ILLINOIS

CITY           SKY/WX    TMP DP  RH WIND       PRES   REMARKS
PONTIAC        CLOUDY    81  79  94 CALM      30.16F HX  90
BLOOMINGTON    PTCLDY    80  73  79 E5        30.17S HX  84
DECATUR        CLEAR     80  74  81 CALM      30.14S HX  85
PEORIA         CLOUDY    78  77  96 NE7       30.14S HX  81
LACON*         CLOUDY    73  69  86 CALM      30.15S
LINCOLN*       CLOUDY    81  76  84 E3        30.13S HX  87
SPRINGFIELD    CLEAR     82  74  76 SE6       30.12F HX  88
TAYLORVILLE    CLEAR     80  74  80 E3        30.14R HX  85
$$

ILZ033-039-045-046-055>057-062-063-300200-
EAST-CENTRAL ILLINOIS

CITY           SKY/WX    TMP DP  RH WIND       PRES   REMARKS
CHAMPAIGN      CLEAR     79  73  82 E5        30.15F HX  82
RANTOUL*       CLEAR     82  76  81 E3        30.15F HX  90
MATTOON        CLEAR     79  72  79 CALM      30.13F HX  82
PARIS*         CLEAR     76  76  99 CALM      30.15S
$$

ILZ079-100>102-300200-
SOUTHWEST ILLINOIS

CITY           SKY/WX    TMP DP  RH WIND       PRES   REMARKS
ALTON          PTCLDY    79  73  83 E6        30.12R HX  82
BELLEVILLE     CLEAR     82  74  76 E5        30.09S HX  88
CAHOKIA*       CLEAR     82  74  76 CALM      30.10R HX  88
SPARTA*        CLEAR     79  74  84 E3        30.11S HX  82
$$

ILZ064>066-069>071-074>076-080>082-084>086-088>090-092>094-300200-
SOUTH-CENTRAL ILLINOIS

CITY           SKY/WX    TMP DP  RH WIND       PRES   REMARKS
CARBONDALE     CLEAR     77  73  87 NE3       30.10R
EFFINGHAM*     CLEAR     77  76  96 CALM      30.15R
MARION         CLEAR     81  75  83 CALM      30.11R HX  86
MT. VERNON     CLEAR     81  70  69 N3        30.12R HX  84
CENTRALIA*     CLEAR     80  76  86 CALM      30.11S HX  85
SALEM*         CLEAR     81  74  78 E3        30.13R HX  86
METROPOLIS*    CLEAR     81  76  84 CALM      30.10R HX  87
$$

ILZ067-068-072-073-078-083-087-091-300200-
SOUTHEAST ILLINOIS

CITY           SKY/WX    TMP DP  RH WIND       PRES   REMARKS
LAWRENCEVILLE  CLEAR     80  79  96 NE5       30.13S HX  88
FLORA*         CLEAR     83  75  76 NE3       30.12S HX  91
FAIRFIELD*     CLEAR     80  73  81 CALM      30.11S HX  84
HARRISBURG*    CLEAR     82  73  74 NE5       30.10S HX  88
ROBINSON*      CLEAR     75  73  95 CALM      30.14S
CARMI*         CLEAR     78  75  90 NE5       30.11R HX  81
$$

ABBREVIATIONS USED IN REMARKS
   TC - TEMPERATURE IN CELSIUS
  WCI - WIND CHILL INDEX
   HX - HEAT INDEX
  VSB - VISIBILITY
$$





USA.gov is the U.S. government's official web portal to all federal, state and local government web resources and services.